Year,Month,Day,Hour,Minute,Value (Times are PST for windgust in km/hr)
2020,01,18,00,00,12.90
2020,01,18,00,01,11.30
2020,01,18,00,02,17.70
2020,01,18,00,03,16.10
2020,01,18,00,04,12.90
2020,01,18,00,05,12.90
2020,01,18,00,06,11.30
2020,01,18,00,07,12.90
2020,01,18,00,08,16.10
2020,01,18,00,09,22.50
2020,01,18,00,10,25.70
2020,01,18,00,11,14.50
2020,01,18,00,12,16.10
2020,01,18,00,13,17.70
2020,01,18,00,14,16.10
2020,01,18,00,15,12.90
2020,01,18,00,16,14.50
2020,01,18,00,17,25.70
2020,01,18,00,18,27.40
2020,01,18,00,19,20.90
2020,01,18,00,20,16.10
2020,01,18,00,21,19.30
2020,01,18,00,22,20.90
2020,01,18,00,23,17.70
2020,01,18,00,24,22.50
2020,01,18,00,25,24.20
2020,01,18,00,26,19.30
2020,01,18,00,27,29.00
2020,01,18,00,28,22.50
2020,01,18,00,29,22.50
2020,01,18,00,30,29.00
2020,01,18,00,31,27.40
2020,01,18,00,32,25.70
2020,01,18,00,33,24.20
2020,01,18,00,34,25.70
2020,01,18,00,35,22.50
2020,01,18,00,36,24.20
2020,01,18,00,37,20.90
2020,01,18,00,38,24.20
2020,01,18,00,39,17.70
2020,01,18,00,40,27.40
2020,01,18,00,41,25.70
2020,01,18,00,42,22.50
2020,01,18,00,43,19.30
2020,01,18,00,44,27.40
2020,01,18,00,45,24.20
2020,01,18,00,46,24.20
2020,01,18,00,47,16.10
2020,01,18,00,48,17.70
2020,01,18,00,49,16.10
2020,01,18,00,50,20.90
2020,01,18,00,51,14.50
2020,01,18,00,52,22.50
2020,01,18,00,53,19.30
2020,01,18,00,54,16.10
2020,01,18,00,55,16.10
2020,01,18,00,56,12.90
2020,01,18,00,57,17.70
2020,01,18,00,58,22.50
2020,01,18,00,59,22.50
2020,01,18,01,00,16.10
2020,01,18,01,01,19.30
2020,01,18,01,02,17.70
2020,01,18,01,03,14.50
2020,01,18,01,04,19.30
2020,01,18,01,05,22.50
2020,01,18,01,06,14.50
2020,01,18,01,07,20.90
2020,01,18,01,08,25.70
2020,01,18,01,09,20.90
2020,01,18,01,10,17.70
2020,01,18,01,11,24.20
2020,01,18,01,12,25.70
2020,01,18,01,13,22.50
2020,01,18,01,14,16.10
2020,01,18,01,15,24.20
2020,01,18,01,16,25.70
2020,01,18,01,17,24.20
2020,01,18,01,18,19.30
2020,01,18,01,19,17.70
2020,01,18,01,20,16.10
2020,01,18,01,21,17.70
2020,01,18,01,22,17.70
2020,01,18,01,23,14.50
2020,01,18,01,24,14.50
2020,01,18,01,25,19.30
2020,01,18,01,26,22.50
2020,01,18,01,27,16.10
2020,01,18,01,28,25.70
2020,01,18,01,29,25.70
2020,01,18,01,30,17.70
2020,01,18,01,31,27.40
2020,01,18,01,32,30.60
2020,01,18,01,33,30.60
2020,01,18,01,34,27.40
2020,01,18,01,35,24.20
2020,01,18,01,36,16.10
2020,01,18,01,37,17.70
2020,01,18,01,38,17.70
2020,01,18,01,39,24.20
2020,01,18,01,40,19.30
2020,01,18,01,41,25.70
2020,01,18,01,42,20.90
2020,01,18,01,43,17.70
2020,01,18,01,44,20.90
2020,01,18,01,45,20.90
2020,01,18,01,46,20.90
2020,01,18,01,47,19.30
2020,01,18,01,48,22.50
2020,01,18,01,49,32.20
2020,01,18,01,50,27.40
2020,01,18,01,51,30.60
2020,01,18,01,52,32.20
2020,01,18,01,53,27.40
2020,01,18,01,54,27.40
2020,01,18,01,55,27.40
2020,01,18,01,56,29.00
2020,01,18,01,57,27.40
2020,01,18,01,58,29.00
2020,01,18,01,59,24.20
2020,01,18,02,00,20.90
2020,01,18,02,01,27.40
2020,01,18,02,02,25.70
2020,01,18,02,03,16.10
2020,01,18,02,04,29.00
2020,01,18,02,05,29.00
2020,01,18,02,06,20.90
2020,01,18,02,07,19.30
2020,01,18,02,08,27.40
2020,01,18,02,09,30.60
2020,01,18,02,10,30.60
2020,01,18,02,11,25.70
2020,01,18,02,12,24.20
2020,01,18,02,13,16.10
2020,01,18,02,14,17.70
2020,01,18,02,15,14.50
2020,01,18,02,16,20.90
2020,01,18,02,17,29.00
2020,01,18,02,18,25.70
2020,01,18,02,19,27.40
2020,01,18,02,20,20.90
2020,01,18,02,21,25.70
2020,01,18,02,22,25.70
2020,01,18,02,23,29.00
2020,01,18,02,24,27.40
2020,01,18,02,25,27.40
2020,01,18,02,26,19.30
2020,01,18,02,27,25.70
2020,01,18,02,28,25.70
2020,01,18,02,29,24.20
2020,01,18,02,30,24.20
2020,01,18,02,31,30.60
2020,01,18,02,32,27.40
2020,01,18,02,33,22.50
2020,01,18,02,34,19.30
2020,01,18,02,35,25.70
2020,01,18,02,36,27.40
2020,01,18,02,37,25.70
2020,01,18,02,38,29.00
2020,01,18,02,39,19.30
2020,01,18,02,40,29.00
2020,01,18,02,41,25.70
2020,01,18,02,42,24.20
2020,01,18,02,43,20.90
2020,01,18,02,44,19.30
2020,01,18,02,45,27.40
2020,01,18,02,46,25.70
2020,01,18,02,47,25.70
2020,01,18,02,48,24.20
2020,01,18,02,49,25.70
2020,01,18,02,50,22.50
2020,01,18,02,51,19.30
2020,01,18,02,52,27.40
2020,01,18,02,53,17.70
2020,01,18,02,54,14.50
2020,01,18,02,55,16.10
2020,01,18,02,56,22.50
2020,01,18,02,57,22.50
2020,01,18,02,58,20.90
2020,01,18,02,59,27.40
2020,01,18,03,00,20.90
2020,01,18,03,01,22.50
2020,01,18,03,02,22.50
2020,01,18,03,03,24.20
2020,01,18,03,04,22.50
2020,01,18,03,05,20.90
2020,01,18,03,06,16.10
2020,01,18,03,07,25.70
2020,01,18,03,08,22.50
2020,01,18,03,09,24.20
2020,01,18,03,10,25.70
2020,01,18,03,11,29.00
2020,01,18,03,12,27.40
2020,01,18,03,13,25.70
2020,01,18,03,14,24.20
2020,01,18,03,15,29.00
2020,01,18,03,16,27.40
2020,01,18,03,17,27.40
2020,01,18,03,18,25.70
2020,01,18,03,19,25.70
2020,01,18,03,20,27.40
2020,01,18,03,21,22.50
2020,01,18,03,22,29.00
2020,01,18,03,23,25.70
2020,01,18,03,24,25.70
2020,01,18,03,25,22.50
2020,01,18,03,26,29.00
2020,01,18,03,27,32.20
2020,01,18,03,28,29.00
2020,01,18,03,29,32.20
2020,01,18,03,30,32.20
2020,01,18,03,31,27.40
2020,01,18,03,32,22.50
2020,01,18,03,33,27.40
2020,01,18,03,34,29.00
2020,01,18,03,35,32.20
2020,01,18,03,36,32.20
2020,01,18,03,37,30.60
2020,01,18,03,38,29.00
2020,01,18,03,39,30.60
2020,01,18,03,40,30.60
2020,01,18,03,41,25.70
2020,01,18,03,42,32.20
2020,01,18,03,43,29.00
2020,01,18,03,44,29.00
2020,01,18,03,45,29.00
2020,01,18,03,46,24.20
2020,01,18,03,47,25.70
2020,01,18,03,48,22.50
2020,01,18,03,49,29.00
2020,01,18,03,50,25.70
2020,01,18,03,51,25.70
2020,01,18,03,52,25.70
2020,01,18,03,53,25.70
2020,01,18,03,54,27.40
2020,01,18,03,55,29.00
2020,01,18,03,56,27.40
2020,01,18,03,57,24.20
2020,01,18,03,58,27.40
2020,01,18,03,59,24.20
2020,01,18,04,00,25.70
2020,01,18,04,01,29.00
2020,01,18,04,02,33.80
2020,01,18,04,03,25.70
2020,01,18,04,04,25.70
2020,01,18,04,05,32.20
2020,01,18,04,06,25.70
2020,01,18,04,07,25.70
2020,01,18,04,08,27.40
2020,01,18,04,09,25.70
2020,01,18,04,10,24.20
2020,01,18,04,11,27.40
2020,01,18,04,12,25.70
2020,01,18,04,13,24.20
2020,01,18,04,14,27.40
2020,01,18,04,15,29.00
2020,01,18,04,16,19.30
2020,01,18,04,17,22.50
2020,01,18,04,18,24.20
2020,01,18,04,19,29.00
2020,01,18,04,20,27.40
2020,01,18,04,21,20.90
2020,01,18,04,22,20.90
2020,01,18,04,23,24.20
2020,01,18,04,24,20.90
2020,01,18,04,25,25.70
2020,01,18,04,26,27.40
2020,01,18,04,27,27.40
2020,01,18,04,28,25.70
2020,01,18,04,29,22.50
2020,01,18,04,30,27.40
2020,01,18,04,31,25.70
2020,01,18,04,32,27.40
2020,01,18,04,33,24.20
2020,01,18,04,34,27.40
2020,01,18,04,35,25.70
2020,01,18,04,36,24.20
2020,01,18,04,37,25.70
2020,01,18,04,38,25.70
2020,01,18,04,39,24.20
2020,01,18,04,40,20.90
2020,01,18,04,41,25.70
2020,01,18,04,42,25.70
2020,01,18,04,43,29.00
2020,01,18,04,44,25.70
2020,01,18,04,45,22.50
2020,01,18,04,46,22.50
2020,01,18,04,47,22.50
2020,01,18,04,48,22.50
2020,01,18,04,49,20.90
2020,01,18,04,50,22.50
2020,01,18,04,51,24.20
2020,01,18,04,52,24.20
2020,01,18,04,53,25.70
2020,01,18,04,54,22.50
2020,01,18,04,55,24.20
2020,01,18,04,56,29.00
2020,01,18,04,57,27.40
2020,01,18,04,58,27.40
2020,01,18,04,59,22.50
2020,01,18,05,00,20.90
2020,01,18,05,01,20.90
2020,01,18,05,02,22.50
2020,01,18,05,03,24.20
2020,01,18,05,04,27.40
2020,01,18,05,05,24.20
2020,01,18,05,06,22.50
2020,01,18,05,07,22.50
2020,01,18,05,08,22.50
2020,01,18,05,09,24.20
2020,01,18,05,10,22.50
2020,01,18,05,11,24.20
2020,01,18,05,12,16.10
2020,01,18,05,13,24.20
2020,01,18,05,14,17.70
2020,01,18,05,15,22.50
2020,01,18,05,16,24.20
2020,01,18,05,17,22.50
2020,01,18,05,18,24.20
2020,01,18,05,19,22.50
2020,01,18,05,20,25.70
2020,01,18,05,21,20.90
2020,01,18,05,22,22.50
2020,01,18,05,23,24.20
2020,01,18,05,24,17.70
2020,01,18,05,25,19.30
2020,01,18,05,26,22.50
2020,01,18,05,27,24.20
2020,01,18,05,28,19.30
2020,01,18,05,29,19.30
2020,01,18,05,30,14.50
2020,01,18,05,31,22.50
2020,01,18,05,32,20.90
2020,01,18,05,33,17.70
2020,01,18,05,34,20.90
2020,01,18,05,35,20.90
2020,01,18,05,36,16.10
2020,01,18,05,37,17.70
2020,01,18,05,38,12.90
2020,01,18,05,39,14.50
2020,01,18,05,40,19.30
2020,01,18,05,41,19.30
2020,01,18,05,42,19.30
2020,01,18,05,43,19.30
2020,01,18,05,44,22.50
2020,01,18,05,45,19.30
2020,01,18,05,46,17.70
2020,01,18,05,47,12.90
2020,01,18,05,48,17.70
2020,01,18,05,49,24.20
2020,01,18,05,50,25.70
2020,01,18,05,51,25.70
2020,01,18,05,52,17.70
2020,01,18,05,53,19.30
2020,01,18,05,54,22.50
2020,01,18,05,55,22.50
2020,01,18,05,56,24.20
2020,01,18,05,57,24.20
2020,01,18,05,58,20.90
2020,01,18,05,59,20.90
2020,01,18,06,00,20.90
2020,01,18,06,01,16.10
2020,01,18,06,02,22.50
2020,01,18,06,03,22.50
2020,01,18,06,04,20.90
2020,01,18,06,05,19.30
2020,01,18,06,06,17.70
2020,01,18,06,07,22.50
2020,01,18,06,08,19.30
2020,01,18,06,09,19.30
2020,01,18,06,10,19.30
2020,01,18,06,11,20.90
2020,01,18,06,12,19.30
2020,01,18,06,13,17.70
2020,01,18,06,14,16.10
2020,01,18,06,15,20.90
2020,01,18,06,16,20.90
2020,01,18,06,17,24.20
2020,01,18,06,18,19.30
2020,01,18,06,19,22.50
2020,01,18,06,20,20.90
2020,01,18,06,21,20.90
2020,01,18,06,22,22.50
2020,01,18,06,23,19.30
2020,01,18,06,24,20.90
2020,01,18,06,25,17.70
2020,01,18,06,26,20.90
2020,01,18,06,27,20.90
2020,01,18,06,28,19.30
2020,01,18,06,29,14.50
2020,01,18,06,30,24.20
2020,01,18,06,31,25.70
2020,01,18,06,32,20.90
2020,01,18,06,33,22.50
2020,01,18,06,34,24.20
2020,01,18,06,35,22.50
2020,01,18,06,36,20.90
2020,01,18,06,37,14.50
2020,01,18,06,38,12.90
2020,01,18,06,39,4.80
2020,01,18,06,40,6.40
2020,01,18,06,41,19.30
2020,01,18,06,42,9.60
2020,01,18,06,43,6.40
2020,01,18,06,44,3.20
2020,01,18,06,45,11.30
2020,01,18,06,46,9.60
2020,01,18,06,47,9.60
2020,01,18,06,48,3.20
2020,01,18,06,49,4.80
2020,01,18,06,50,14.50
2020,01,18,06,51,11.30
2020,01,18,06,52,9.60
2020,01,18,06,53,19.30
2020,01,18,06,54,11.30
2020,01,18,06,55,17.70
2020,01,18,06,56,6.40
2020,01,18,06,57,11.30
2020,01,18,06,58,16.10
2020,01,18,06,59,16.10
2020,01,18,07,00,20.90
2020,01,18,07,01,12.90
2020,01,18,07,02,8.10
2020,01,18,07,03,4.80
2020,01,18,07,04,6.40
2020,01,18,07,05,19.30
2020,01,18,07,06,17.70
2020,01,18,07,07,14.50
2020,01,18,07,08,19.30
2020,01,18,07,09,6.40
2020,01,18,07,10,16.10
2020,01,18,07,11,22.50
2020,01,18,07,12,20.90
2020,01,18,07,13,17.70
2020,01,18,07,14,17.70
2020,01,18,07,15,22.50
2020,01,18,07,16,24.20
2020,01,18,07,17,19.30
2020,01,18,07,18,4.80
2020,01,18,07,19,11.30
2020,01,18,07,20,11.30
2020,01,18,07,21,17.70
2020,01,18,07,22,11.30
2020,01,18,07,23,19.30
2020,01,18,07,24,17.70
2020,01,18,07,25,16.10
2020,01,18,07,26,16.10
2020,01,18,07,27,16.10
2020,01,18,07,28,14.50
2020,01,18,07,29,9.60
2020,01,18,07,30,11.30
2020,01,18,07,31,6.40
2020,01,18,07,32,4.80
2020,01,18,07,33,4.80
2020,01,18,07,34,16.10
2020,01,18,07,35,12.90
2020,01,18,07,36,11.30
2020,01,18,07,37,8.10
2020,01,18,07,38,19.30
2020,01,18,07,39,11.30
2020,01,18,07,40,11.30
2020,01,18,07,41,14.50
2020,01,18,07,42,14.50
2020,01,18,07,43,6.40
2020,01,18,07,44,9.60
2020,01,18,07,45,12.90
2020,01,18,07,46,9.60
2020,01,18,07,47,9.60
2020,01,18,07,48,4.80
2020,01,18,07,49,6.40
2020,01,18,07,50,12.90
2020,01,18,07,51,6.40
2020,01,18,07,52,14.50
2020,01,18,07,53,11.30
2020,01,18,07,54,6.40
2020,01,18,07,55,9.60
2020,01,18,07,56,17.70
2020,01,18,07,57,9.60
2020,01,18,07,58,6.40
2020,01,18,07,59,14.50
2020,01,18,08,00,11.30
2020,01,18,08,01,17.70
2020,01,18,08,02,9.60
2020,01,18,08,03,6.40
2020,01,18,08,04,12.90
2020,01,18,08,05,12.90
2020,01,18,08,06,9.60
2020,01,18,08,07,6.40
2020,01,18,08,08,11.30
2020,01,18,08,09,16.10
2020,01,18,08,10,8.10
2020,01,18,08,11,12.90
2020,01,18,08,12,4.80
2020,01,18,08,13,6.40
2020,01,18,08,14,4.80
2020,01,18,08,15,3.20
2020,01,18,08,16,8.10
2020,01,18,08,17,12.90
2020,01,18,08,18,12.90
2020,01,18,08,19,9.60
2020,01,18,08,20,11.30
2020,01,18,08,21,16.10
2020,01,18,08,22,14.50
2020,01,18,08,23,20.90
2020,01,18,08,24,14.50
2020,01,18,08,25,11.30
2020,01,18,08,26,6.40
2020,01,18,08,27,4.80
2020,01,18,08,28,9.60
2020,01,18,08,29,19.30
2020,01,18,08,30,17.70
2020,01,18,08,31,12.90
2020,01,18,08,32,12.90
2020,01,18,08,33,16.10
2020,01,18,08,34,14.50
2020,01,18,08,35,16.10
2020,01,18,08,36,20.90
2020,01,18,08,37,17.70
2020,01,18,08,38,12.90
2020,01,18,08,39,14.50
2020,01,18,08,40,20.90
2020,01,18,08,41,19.30
2020,01,18,08,42,14.50
2020,01,18,08,43,14.50
2020,01,18,08,44,12.90
2020,01,18,08,45,20.90
2020,01,18,08,46,20.90
2020,01,18,08,47,19.30
2020,01,18,08,48,19.30
2020,01,18,08,49,11.30
2020,01,18,08,50,16.10
2020,01,18,08,51,24.20
2020,01,18,08,52,12.90
2020,01,18,08,53,11.30
2020,01,18,08,54,14.50
2020,01,18,08,55,12.90
2020,01,18,08,56,17.70
2020,01,18,08,57,9.60
2020,01,18,08,58,11.30
2020,01,18,08,59,24.20
2020,01,18,09,00,16.10
2020,01,18,09,01,16.10
2020,01,18,09,02,20.90
2020,01,18,09,03,9.60
2020,01,18,09,04,11.30
2020,01,18,09,05,6.40
2020,01,18,09,06,19.30
2020,01,18,09,07,16.10
2020,01,18,09,08,14.50
2020,01,18,09,09,12.90
2020,01,18,09,10,9.60
2020,01,18,09,11,16.10
2020,01,18,09,12,16.10
2020,01,18,09,13,12.90
2020,01,18,09,14,11.30
2020,01,18,09,15,11.30
2020,01,18,09,16,16.10
2020,01,18,09,17,16.10
2020,01,18,09,18,11.30
2020,01,18,09,19,16.10
2020,01,18,09,20,6.40
2020,01,18,09,21,6.40
2020,01,18,09,22,11.30
2020,01,18,09,23,6.40
2020,01,18,09,24,9.60
2020,01,18,09,25,9.60
2020,01,18,09,26,9.60
2020,01,18,09,27,4.80
2020,01,18,09,28,6.40
2020,01,18,09,29,11.30
2020,01,18,09,30,12.90
2020,01,18,09,31,11.30
2020,01,18,09,32,11.30
2020,01,18,09,33,11.30
2020,01,18,09,34,22.50
2020,01,18,09,35,20.90
2020,01,18,09,36,8.10
2020,01,18,09,37,17.70
2020,01,18,09,38,9.60
2020,01,18,09,39,12.90
2020,01,18,09,40,6.40
2020,01,18,09,41,4.80
2020,01,18,09,42,12.90
2020,01,18,09,43,9.60
2020,01,18,09,44,16.10
2020,01,18,09,45,11.30
2020,01,18,09,46,6.40
2020,01,18,09,47,19.30
2020,01,18,09,48,14.50
2020,01,18,09,49,6.40
2020,01,18,09,50,16.10
2020,01,18,09,51,16.10
2020,01,18,09,52,17.70
2020,01,18,09,53,12.90
2020,01,18,09,54,14.50
2020,01,18,09,55,14.50
2020,01,18,09,56,19.30
2020,01,18,09,57,17.70
2020,01,18,09,58,14.50
2020,01,18,09,59,20.90
2020,01,18,10,00,14.50
2020,01,18,10,01,17.70
2020,01,18,10,02,14.50
2020,01,18,10,03,11.30
2020,01,18,10,04,16.10
2020,01,18,10,05,19.30
2020,01,18,10,06,14.50
2020,01,18,10,07,9.60
2020,01,18,10,08,17.70
2020,01,18,10,09,16.10
2020,01,18,10,10,9.60
2020,01,18,10,11,22.50
2020,01,18,10,12,11.30
2020,01,18,10,13,12.90
2020,01,18,10,14,9.60
2020,01,18,10,15,16.10
2020,01,18,10,16,19.30
2020,01,18,10,17,9.60
2020,01,18,10,18,8.10
2020,01,18,10,19,11.30
2020,01,18,10,20,16.10
2020,01,18,10,21,9.60
2020,01,18,10,22,14.50
2020,01,18,10,23,14.50
2020,01,18,10,24,17.70
2020,01,18,10,25,9.60
2020,01,18,10,26,14.50
2020,01,18,10,27,19.30
2020,01,18,10,28,14.50
2020,01,18,10,29,17.70
2020,01,18,10,30,12.90
2020,01,18,10,31,12.90
2020,01,18,10,32,16.10
2020,01,18,10,33,19.30
2020,01,18,10,34,16.10
2020,01,18,10,35,6.40
2020,01,18,10,36,12.90
2020,01,18,10,37,9.60
2020,01,18,10,38,9.60
2020,01,18,10,39,8.10
2020,01,18,10,40,14.50
2020,01,18,10,41,11.30
2020,01,18,10,42,9.60
2020,01,18,10,43,14.50
2020,01,18,10,44,8.10
2020,01,18,10,45,12.90
2020,01,18,10,46,9.60
2020,01,18,10,47,12.90
2020,01,18,10,48,14.50
2020,01,18,10,49,14.50
2020,01,18,10,50,17.70
2020,01,18,10,51,12.90
2020,01,18,10,52,9.60
2020,01,18,10,53,11.30
2020,01,18,10,54,12.90
2020,01,18,10,55,20.90
2020,01,18,10,56,11.30
2020,01,18,10,57,9.60
2020,01,18,10,58,11.30
2020,01,18,10,59,14.50
2020,01,18,11,00,16.10
2020,01,18,11,01,12.90
2020,01,18,11,02,4.80
2020,01,18,11,03,6.40
2020,01,18,11,04,9.60
2020,01,18,11,05,11.30
2020,01,18,11,06,14.50
2020,01,18,11,07,14.50
2020,01,18,11,08,9.60
2020,01,18,11,09,16.10
2020,01,18,11,10,14.50
2020,01,18,11,11,14.50
2020,01,18,11,12,11.30
2020,01,18,11,13,12.90
2020,01,18,11,14,12.90
2020,01,18,11,15,11.30
2020,01,18,11,16,12.90
2020,01,18,11,17,16.10
2020,01,18,11,18,19.30
2020,01,18,11,19,12.90
2020,01,18,11,20,11.30
2020,01,18,11,21,6.40
2020,01,18,11,22,16.10
2020,01,18,11,23,12.90
2020,01,18,11,24,14.50
2020,01,18,11,25,19.30
2020,01,18,11,26,19.30
2020,01,18,11,27,12.90
2020,01,18,11,28,12.90
2020,01,18,11,29,16.10
2020,01,18,11,30,14.50
2020,01,18,11,31,11.30
2020,01,18,11,32,11.30
2020,01,18,11,33,16.10
2020,01,18,11,34,14.50
2020,01,18,11,35,19.30
2020,01,18,11,36,17.70
2020,01,18,11,37,17.70
2020,01,18,11,38,17.70
2020,01,18,11,39,22.50
2020,01,18,11,40,16.10
2020,01,18,11,41,19.30
2020,01,18,11,42,11.30
2020,01,18,11,43,12.90
2020,01,18,11,44,16.10
2020,01,18,11,45,11.30
2020,01,18,11,46,22.50
2020,01,18,11,47,22.50
2020,01,18,11,48,19.30
2020,01,18,11,49,12.90
2020,01,18,11,50,9.60
2020,01,18,11,51,16.10
2020,01,18,11,52,12.90
2020,01,18,11,53,6.40
2020,01,18,11,54,9.60
2020,01,18,11,55,9.60
2020,01,18,11,56,16.10
2020,01,18,11,57,12.90
2020,01,18,11,58,9.60
2020,01,18,11,59,14.50
2020,01,18,12,00,12.90
2020,01,18,12,01,9.60
2020,01,18,12,02,6.40
2020,01,18,12,03,12.90
2020,01,18,12,04,6.40
2020,01,18,12,05,14.50
2020,01,18,12,06,19.30
2020,01,18,12,07,12.90
2020,01,18,12,08,16.10
2020,01,18,12,09,12.90
2020,01,18,12,10,4.80
2020,01,18,12,11,11.30
2020,01,18,12,12,11.30
2020,01,18,12,13,12.90
2020,01,18,12,14,16.10
2020,01,18,12,15,12.90
2020,01,18,12,16,12.90
2020,01,18,12,17,12.90
2020,01,18,12,18,12.90
2020,01,18,12,19,14.50
2020,01,18,12,20,14.50
2020,01,18,12,21,12.90
2020,01,18,12,22,6.40
2020,01,18,12,23,6.40
2020,01,18,12,24,11.30
2020,01,18,12,25,17.70
2020,01,18,12,26,12.90
2020,01,18,12,27,8.10
2020,01,18,12,28,11.30
2020,01,18,12,29,11.30
2020,01,18,12,30,11.30
2020,01,18,12,31,6.40
2020,01,18,12,32,11.30
2020,01,18,12,33,11.30
2020,01,18,12,34,11.30
2020,01,18,12,35,8.10
2020,01,18,12,36,11.30
2020,01,18,12,37,9.60
2020,01,18,12,38,9.60
2020,01,18,12,39,17.70
2020,01,18,12,40,11.30
2020,01,18,12,41,11.30
2020,01,18,12,42,9.60
2020,01,18,12,43,6.40
2020,01,18,12,44,9.60
2020,01,18,12,45,6.40
2020,01,18,12,46,4.80
2020,01,18,12,47,3.20
2020,01,18,12,48,6.40
2020,01,18,12,49,6.40
2020,01,18,12,50,16.10
2020,01,18,12,51,8.10
2020,01,18,12,52,9.60
2020,01,18,12,53,6.40
2020,01,18,12,54,19.30
2020,01,18,12,55,19.30
2020,01,18,12,56,12.90
2020,01,18,12,57,12.90
2020,01,18,12,58,19.30
2020,01,18,12,59,9.60
2020,01,18,13,00,9.60
2020,01,18,13,01,16.10
2020,01,18,13,02,6.40
2020,01,18,13,03,8.10
2020,01,18,13,04,9.60
2020,01,18,13,05,11.30
2020,01,18,13,06,12.90
2020,01,18,13,07,4.80
2020,01,18,13,08,12.90
2020,01,18,13,09,11.30
2020,01,18,13,10,9.60
2020,01,18,13,11,14.50
2020,01,18,13,12,9.60
2020,01,18,13,13,12.90
2020,01,18,13,14,11.30
2020,01,18,13,15,12.90
2020,01,18,13,16,14.50
2020,01,18,13,17,8.10
2020,01,18,13,18,6.40
2020,01,18,13,19,14.50
2020,01,18,13,20,11.30
2020,01,18,13,21,12.90
2020,01,18,13,22,12.90
2020,01,18,13,23,19.30
2020,01,18,13,24,16.10
2020,01,18,13,25,16.10
2020,01,18,13,26,12.90
2020,01,18,13,27,14.50
2020,01,18,13,28,12.90
2020,01,18,13,29,14.50
2020,01,18,13,30,9.60
2020,01,18,13,31,8.10
2020,01,18,13,32,17.70
2020,01,18,13,33,16.10
2020,01,18,13,34,12.90
2020,01,18,13,35,9.60
2020,01,18,13,36,11.30
2020,01,18,13,37,9.60
2020,01,18,13,38,12.90
2020,01,18,13,39,12.90
2020,01,18,13,40,11.30
2020,01,18,13,41,9.60
2020,01,18,13,42,6.40
2020,01,18,13,43,8.10
2020,01,18,13,44,17.70
2020,01,18,13,45,14.50
2020,01,18,13,46,8.10
2020,01,18,13,47,24.20
2020,01,18,13,48,14.50
2020,01,18,13,49,12.90
2020,01,18,13,50,14.50
2020,01,18,13,51,12.90
2020,01,18,13,52,9.60
2020,01,18,13,53,12.90
2020,01,18,13,54,14.50
2020,01,18,13,55,12.90
2020,01,18,13,56,8.10
2020,01,18,13,57,9.60
2020,01,18,13,58,14.50
2020,01,18,13,59,11.30
2020,01,18,14,00,6.40
2020,01,18,14,01,11.30
2020,01,18,14,02,14.50
2020,01,18,14,03,9.60
2020,01,18,14,04,22.50
2020,01,18,14,05,12.90
2020,01,18,14,06,11.30
2020,01,18,14,07,6.40
2020,01,18,14,08,9.60
2020,01,18,14,09,9.60
2020,01,18,14,10,6.40
2020,01,18,14,11,9.60
2020,01,18,14,12,4.80
2020,01,18,14,13,6.40
2020,01,18,14,14,4.80
2020,01,18,14,15,6.40
2020,01,18,14,16,6.40
2020,01,18,14,17,6.40
2020,01,18,14,18,8.10
2020,01,18,14,19,6.40
2020,01,18,14,20,9.60
2020,01,18,14,21,11.30
2020,01,18,14,22,6.40
2020,01,18,14,23,6.40
2020,01,18,14,24,6.40
2020,01,18,14,25,4.80
2020,01,18,14,26,4.80
2020,01,18,14,27,3.20
2020,01,18,14,28,11.30
2020,01,18,14,29,4.80
2020,01,18,14,30,3.20
2020,01,18,14,31,3.20
2020,01,18,14,32,6.40
2020,01,18,14,33,6.40
2020,01,18,14,34,3.20
2020,01,18,14,35,3.20
2020,01,18,14,36,4.80
2020,01,18,14,37,4.80
2020,01,18,14,38,4.80
2020,01,18,14,39,6.40
2020,01,18,14,40,4.80
2020,01,18,14,41,6.40
2020,01,18,14,42,4.80
2020,01,18,14,43,3.20
2020,01,18,14,44,1.60
2020,01,18,14,45,1.60
2020,01,18,14,46,1.60
2020,01,18,14,47,4.80
2020,01,18,14,48,6.40
2020,01,18,14,49,6.40
2020,01,18,14,50,4.80
2020,01,18,14,51,3.20
2020,01,18,14,52,3.20
2020,01,18,14,53,3.20
2020,01,18,14,54,1.60
2020,01,18,14,55,1.60
2020,01,18,14,56,4.80
2020,01,18,14,57,3.20
2020,01,18,14,58,4.80
2020,01,18,14,59,4.80
2020,01,18,15,00,6.40
2020,01,18,15,01,4.80
2020,01,18,15,02,4.80
2020,01,18,15,03,6.40
2020,01,18,15,04,6.40
2020,01,18,15,05,4.80
2020,01,18,15,06,4.80
2020,01,18,15,07,6.40
2020,01,18,15,08,6.40
2020,01,18,15,09,8.10
2020,01,18,15,10,4.80
2020,01,18,15,11,4.80
2020,01,18,15,12,6.40
2020,01,18,15,13,9.60
2020,01,18,15,14,6.40
2020,01,18,15,15,4.80
2020,01,18,15,16,9.60
2020,01,18,15,17,8.10
2020,01,18,15,18,9.60
2020,01,18,15,19,6.40
2020,01,18,15,20,11.30
2020,01,18,15,21,11.30
2020,01,18,15,22,6.40
2020,01,18,15,23,6.40
2020,01,18,15,24,6.40
2020,01,18,15,25,4.80
2020,01,18,15,26,4.80
2020,01,18,15,27,8.10
2020,01,18,15,28,6.40
2020,01,18,15,29,4.80
2020,01,18,15,30,6.40
2020,01,18,15,31,6.40
2020,01,18,15,32,3.20
2020,01,18,15,33,4.80
2020,01,18,15,34,6.40
2020,01,18,15,35,4.80
2020,01,18,15,36,4.80
2020,01,18,15,37,6.40
2020,01,18,15,38,4.80
2020,01,18,15,39,4.80
2020,01,18,15,40,4.80
2020,01,18,15,41,3.20
2020,01,18,15,42,6.40
2020,01,18,15,43,3.20
2020,01,18,15,44,4.80
2020,01,18,15,45,3.20
2020,01,18,15,46,3.20
2020,01,18,15,47,3.20
2020,01,18,15,48,3.20
2020,01,18,15,49,3.20
2020,01,18,15,50,3.20
2020,01,18,15,51,6.40
2020,01,18,15,52,3.20
2020,01,18,15,53,3.20
2020,01,18,15,54,11.30
2020,01,18,15,55,4.80
2020,01,18,15,56,4.80
2020,01,18,15,57,3.20
2020,01,18,15,58,9.60
2020,01,18,15,59,3.20
2020,01,18,16,00,6.40
2020,01,18,16,01,4.80
2020,01,18,16,02,3.20
2020,01,18,16,03,6.40
2020,01,18,16,04,4.80
2020,01,18,16,05,9.60
2020,01,18,16,06,11.30
2020,01,18,16,07,12.90
2020,01,18,16,08,11.30
2020,01,18,16,09,11.30
2020,01,18,16,10,4.80
2020,01,18,16,11,11.30
2020,01,18,16,12,11.30
2020,01,18,16,13,12.90
2020,01,18,16,14,4.80
2020,01,18,16,15,6.40
2020,01,18,16,16,9.60
2020,01,18,16,17,4.80
2020,01,18,16,18,3.20
2020,01,18,16,19,8.10
2020,01,18,16,20,4.80
2020,01,18,16,21,4.80
2020,01,18,16,22,4.80
2020,01,18,16,23,8.10
2020,01,18,16,24,8.10
2020,01,18,16,25,3.20
2020,01,18,16,26,3.20
2020,01,18,16,27,3.20
2020,01,18,16,28,4.80
2020,01,18,16,29,4.80
2020,01,18,16,30,6.40
2020,01,18,16,31,6.40
2020,01,18,16,32,9.60
2020,01,18,16,33,4.80
2020,01,18,16,34,11.30
2020,01,18,16,35,4.80
2020,01,18,16,36,3.20
2020,01,18,16,37,6.40
2020,01,18,16,38,6.40
2020,01,18,16,39,6.40
2020,01,18,16,40,3.20
2020,01,18,16,41,3.20
2020,01,18,16,42,1.60
2020,01,18,16,43,1.60
2020,01,18,16,44,1.60
2020,01,18,16,45,3.20
2020,01,18,16,46,3.20
2020,01,18,16,47,1.60
2020,01,18,16,48,1.60
2020,01,18,16,49,1.60
2020,01,18,16,50,1.60
2020,01,18,16,51,3.20
2020,01,18,16,52,1.60
2020,01,18,16,53,1.60
2020,01,18,16,55,1.60
2020,01,18,16,56,1.60
2020,01,18,16,57,4.80
2020,01,18,16,58,4.80
2020,01,18,16,59,3.20
2020,01,18,17,00,3.20
2020,01,18,17,01,1.60
2020,01,18,17,02,1.60
2020,01,18,17,03,1.60
2020,01,18,17,04,6.40
2020,01,18,17,05,3.20
2020,01,18,17,06,1.60
2020,01,18,17,07,1.60
2020,01,18,17,08,4.80
2020,01,18,17,09,3.20
2020,01,18,17,10,9.60
2020,01,18,17,11,6.40
2020,01,18,17,12,6.40
2020,01,18,17,13,6.40
2020,01,18,17,14,9.60
2020,01,18,17,15,9.60
2020,01,18,17,16,6.40
2020,01,18,17,17,11.30
2020,01,18,17,18,9.60
2020,01,18,17,19,3.20
2020,01,18,17,20,6.40
2020,01,18,17,21,9.60
2020,01,18,17,22,11.30
2020,01,18,17,23,6.40
2020,01,18,17,24,3.20
2020,01,18,17,25,1.60
2020,01,18,17,26,1.60
2020,01,18,17,27,1.60
2020,01,18,17,28,3.20
2020,01,18,17,29,1.60
2020,01,18,17,30,1.60
2020,01,18,17,31,1.60
2020,01,18,17,32,1.60
2020,01,18,17,33,1.60
2020,01,18,17,34,3.20